User: anonymous   Login
Location: Unspecified
(0.0000°N, 0.0000°E)
Time: 14:47:09
(UTC+00:00)
Language:

KAGAYAKI - Orbit

View from above orbital plane
View from above orbital plane
View from above satellite
View from above satellite

Ground track
Ground track

The orbit data is extracted from the following two-line orbital elements,

1 33495U 09002D   17202.87901854 +.00000002 +00000-0 +87865-5 0  9990
2 33495 098.3322 358.6169 0006844 278.3274 081.7156 14.72030331455518
Epoch (UTC): 21 July 2017 21:05:47
Eccentricity: 0.0006844
inclination: 98.3322°
perigee height: 650 km
apogee height: 659 km
right ascension of ascending node: 358.6169°
argument of perigee: 278.3274°
revolutions per day: 14.72030331
mean anomaly at epoch: 81.7156°
orbit number at epoch: 45551

The dashed part of the orbit path shows where the satellite is in the earth's shadow,  

DLR